QPF
0.06 0.08 0.12 0.07 0.05 0.08 0.09 0.11 0.12 0.14 0.14 0.17 0.17 0.16 0.10 0.07 0.07 0.08 0.10 0.14 0.16 0.17 0.20 0.22 0.25 0.21 0.23 0.20 0.13 0.13 0.17 0.17 0.17 0.16 0.16 0.12 0.09 0.10 0.09 0.07 0.06 0.02 0.02
0.05 0.06 0.09 0.05 0.06 0.08 0.10 0.12 0.15 0.14 0.15 0.13 0.13 0.17 0.16 0.09 0.07 0.07 0.08 0.12 0.15 0.15 0.17 0.22 0.26 0.27 0.28 0.20 0.16 0.17 0.17 0.17 0.16 0.16 0.15 0.13 0.12 0.13 0.11 0.08 0.07 0.03 0.03
0.03 0.03 0.04 0.04 0.06 0.09 0.11 0.13 0.14 0.13 0.12 0.09 0.09 0.15 0.17 0.09 0.09 0.06 0.08 0.11 0.14 0.16 0.20 0.28 0.30 0.24 0.19 0.18 0.22 0.20 0.19 0.18 0.18 0.17 0.14 0.08 0.08 0.12 0.12 0.08 0.07 0.07 0.06
0.02 0.03 0.04 0.04 0.05 0.08 0.09 0.11 0.13 0.13 0.12 0.11 0.10 0.15 0.13 0.11 0.09 0.07 0.08 0.11 0.12 0.15 0.20 0.24 0.24 0.17 0.17 0.23 0.26 0.25 0.24 0.22 0.19 0.15 0.10 0.06 0.05 0.07 0.08 0.08 0.08 0.08 0.06
0.01 0.02 0.05 0.06 0.05 0.06 0.07 0.09 0.12 0.12 0.12 0.12 0.11 0.10 0.09 0.08 0.07 0.09 0.14 0.19 0.17 0.15 0.18 0.19 0.18 0.16 0.17 0.25 0.35 0.31 0.27 0.22 0.18 0.14 0.07 0.05 0.05 0.06 0.07 0.06 0.05 0.07 0.06
0.01 0.01 0.04 0.06 0.07 0.06 0.06 0.07 0.08 0.09 0.11 0.13 0.11 0.09 0.08 0.07 0.08 0.14 0.25 0.21 0.15 0.16 0.22 0.26 0.25 0.22 0.22 0.36 0.42 0.31 0.23 0.17 0.17 0.12 0.07 0.05 0.05 0.07 0.06 0.06 0.05 0.07 0.07
0.01 0.01 0.02 0.05 0.06 0.07 0.07 0.06 0.06 0.07 0.07 0.10 0.12 0.10 0.10 0.10 0.10 0.18 0.25 0.15 0.11 0.13 0.19 0.26 0.30 0.30 0.35 0.48 0.41 0.26 0.19 0.18 0.14 0.10 0.08 0.05 0.04 0.06 0.06 0.06 0.08 0.09 0.08
0.01 0.01 0.01 0.05 0.06 0.05 0.06 0.05 0.05 0.06 0.06 0.07 0.10 0.10 0.10 0.11 0.10 0.14 0.19 0.16 0.13 0.12 0.14 0.24 0.32 0.32 0.43 0.51 0.39 0.26 0.21 0.18 0.13 0.11 0.09 0.05 0.05 0.05 0.05 0.06 0.06 0.07 0.07
0.02 0.02 0.02 0.05 0.09 0.07 0.06 0.05 0.05 0.07 0.09 0.09 0.10 0.11 0.11 0.11 0.12 0.14 0.17 0.20 0.19 0.17 0.18 0.20 0.19 0.16 0.22 0.29 0.26 0.16 0.13 0.12 0.08 0.15 0.15 0.07 0.05 0.06 0.06 0.05 0.04 0.04 0.04
0.02 0.03 0.05 0.06 0.07 0.05 0.05 0.04 0.05 0.11 0.17 0.18 0.16 0.14 0.14 0.14 0.14 0.16 0.20 0.23 0.21 0.18 0.16 0.12 0.08 0.05 0.05 0.07 0.08 0.06 0.08 0.10 0.08 0.12 0.12 0.06 0.05 0.07 0.07 0.04 0.04 0.04 0.04
0.02 0.03 0.04 0.05 0.05 0.04 0.04 0.04 0.04 0.09 0.17 0.25 0.24 0.18 0.12 0.11 0.13 0.16 0.18 0.17 0.15 0.13 0.11 0.09 0.07 0.04 0.04 0.04 0.04 0.04 0.05 0.06 0.07 0.06 0.04 0.04 0.04 0.07 0.07 0.05 0.05 0.05 0.05
0.03 0.04 0.04 0.04 0.05 0.03 0.03 0.04 0.04 0.06 0.11 0.15 0.13 0.08 0.06 0.08 0.10 0.13 0.15 0.13 0.11 0.11 0.10 0.09 0.08 0.07 0.06 0.06 0.06 0.04 0.04 0.04 0.06 0.04 0.04 0.04 0.05 0.06 0.06 0.05 0.05 0.05 0.06
0.02 0.03 0.04 0.04 0.04 0.03 0.02 0.03 0.04 0.05 0.06 0.07 0.06 0.03 0.03 0.04 0.07 0.08 0.09 0.10 0.10 0.08 0.07 0.07 0.06 0.06 0.04 0.03 0.04 0.05 0.05 0.07 0.05 0.03 0.03 0.03 0.03 0.04 0.05 0.04 0.04 0.05 0.06
0.02 0.03 0.04 0.04 0.05 0.03 0.03 0.03 0.04 0.03 0.04 0.05 0.04 0.03 0.03 0.03 0.04 0.06 0.07 0.06 0.08 0.07 0.05 0.04 0.05 0.06 0.05 0.04 0.06 0.08 0.09 0.11 0.09 0.05 0.03 0.03 0.02 0.03 0.06 0.06 0.06 0.07 0.08
0.01 0.01 0.01 0.02 0.03 0.02 0.03 0.05 0.04 0.02 0.02 0.03 0.02 0.02 0.02 0.02 0.04 0.04 0.04 0.05 0.06 0.05 0.04 0.03 0.05 0.07 0.05 0.04 0.04 0.05 0.06 0.08 0.09 0.08 0.06 0.07 0.06 0.05 0.06 0.06 0.07 0.07 0.08
0.00 0.00 0.01 0.01 0.02 0.02 0.02 0.03 0.03 0.03 0.03 0.03 0.02 0.03 0.03 0.03 0.05 0.05 0.03 0.04 0.03 0.04 0.03 0.02 0.04 0.06 0.05 0.04 0.04 0.05 0.05 0.06 0.06 0.04 0.05 0.06 0.07 0.06 0.05 0.05 0.05 0.06 0.06
0.00 0.00 0.01 0.01 0.02 0.02 0.01 0.01 0.02 0.03 0.02 0.02 0.02 0.03 0.02 0.02 0.03 0.03 0.03 0.03 0.02 0.05 0.04 0.02 0.03 0.04 0.04 0.03 0.03 0.03 0.04 0.05 0.06 0.05 0.05 0.05 0.06 0.06 0.06 0.05 0.04 0.05 0.06
0.00 0.01 0.01 0.02 0.02 0.02 0.02 0.01 0.02 0.02 0.02 0.02 0.02 0.02 0.02 0.02 0.03 0.03 0.03 0.04 0.03 0.03 0.03 0.03 0.02 0.02 0.02 0.02 0.02 0.02 0.02 0.03 0.04 0.04 0.05 0.05 0.06 0.06 0.06 0.06 0.06 0.05 0.05
0.01 0.01 0.02 0.01 0.01 0.01 0.02 0.01 0.02 0.03 0.02 0.02 0.02 0.02 0.02 0.02 0.02 0.02 0.02 0.03 0.03 0.03 0.03 0.02 0.01 0.01 0.01 0.02 0.02 0.01 0.01 0.02 0.03 0.03 0.04 0.04 0.05 0.07 0.07 0.06 0.06 0.06 0.05
0.02 0.01 0.01 0.01 0.01 0.01 0.01 0.01 0.01 0.02 0.02 0.02 0.02 0.02 0.02 0.02 0.02 0.02 0.02 0.02 0.02 0.03 0.03 0.02 0.02 0.02 0.02 0.02 0.02 0.01 0.02 0.02 0.02 0.03 0.05 0.05 0.05 0.06 0.06 0.05 0.04 0.03 0.04
0.01 0.01 0.01 0.01 0.01 0.01 0.01 0.01 0.01 0.01 0.02 0.02 0.02 0.01 0.02 0.02 0.02 0.02 0.01 0.02 0.02 0.02 0.02 0.02 0.02 0.02 0.02 0.01 0.02 0.02 0.02 0.01 0.02 0.03 0.03 0.05 0.06 0.06 0.06 0.06 0.06 0.05 0.04
0.02 0.02 0.01 0.01 0.01 0.01 0.00 0.00 0.00 0.01 0.01 0.01 0.01 0.01 0.01 0.01 0.01 0.02 0.02 0.02 0.02 0.01 0.01 0.02 0.02 0.02 0.02 0.01 0.02 0.04 0.02 0.02 0.03 0.03 0.04 0.04 0.05 0.06 0.05 0.06 0.06 0.05 0.06
0.02 0.02 0.01 0.01 0.01 0.01 0.00 0.00 0.00 0.00 0.01 0.01 0.01 0.01 0.01 0.01 0.01 0.01 0.02 0.02 0.03 0.02 0.02 0.02 0.03 0.03 0.07 0.05 0.03 0.03 0.02 0.03 0.04 0.05 0.04 0.04 0.04 0.05 0.07 0.07 0.05 0.06 0.07
0.02 0.02 0.01 0.01 0.01 0.02 0.01 0.00 0.00 0.00 0.00 0.01 0.01 0.01 0.01 0.01 0.01 0.01 0.02 0.02 0.03 0.03 0.04 0.04 0.05 0.05 0.05 0.04 0.04 0.04 0.05 0.06 0.06 0.06 0.07 0.06 0.03 0.03 0.04 0.04 0.05 0.06 0.07
0.02 0.02 0.02 0.01 0.01 0.01 0.01 0.01 0.01 0.00 0.00 0.01 0.01 0.01 0.01 0.01 0.01 0.01 0.01 0.02 0.02 0.02 0.02 0.02 0.02 0.02 0.03 0.03 0.04 0.04 0.06 0.07 0.06 0.05 0.07 0.08 0.05 0.03 0.04 0.04 0.04 0.05 0.05
0.03 0.03 0.03 0.02 0.01 0.01 0.02 0.01 0.01 0.01 0.01 0.01 0.01 0.01 0.01 0.01 0.02 0.02 0.02 0.02 0.03 0.02 0.02 0.02 0.03 0.02 0.03 0.03 0.04 0.04 0.04 0.05 0.05 0.05 0.06 0.06 0.05 0.04 0.04 0.04 0.04 0.05 0.05
MSLP
1008.79 1007.07 1005.31 1003.60 1002.02 1000.58 999.30 998.20 997.30 996.66 996.35 996.43 996.93 997.86 999.14 1000.66 1002.27 1003.81 1005.15 1006.24 1007.05 1007.64 1008.10 1008.50 1008.92 1009.40 1009.92 1010.47 1010.98 1011.41 1011.76 1012.03 1012.25 1012.46 1012.70 1012.99 1013.33 1013.68 1014.03 1014.32 1014.55 1014.71 1014.82
1009.14 1007.49 1005.81 1004.19 1002.68 1001.31 1000.09 999.02 998.13 997.48 997.14 997.17 997.62 998.48 999.67 1001.11 1002.63 1004.10 1005.40 1006.45 1007.25 1007.84 1008.30 1008.70 1009.12 1009.57 1010.08 1010.59 1011.07 1011.50 1011.85 1012.13 1012.38 1012.63 1012.91 1013.22 1013.57 1013.93 1014.26 1014.53 1014.73 1014.88 1014.98
1009.38 1007.86 1006.31 1004.83 1003.46 1002.22 1001.11 1000.12 999.30 998.67 998.32 998.31 998.67 999.41 1000.47 1001.75 1003.13 1004.47 1005.66 1006.65 1007.41 1008.00 1008.46 1008.88 1009.29 1009.75 1010.23 1010.72 1011.19 1011.61 1011.97 1012.28 1012.56 1012.85 1013.16 1013.51 1013.86 1014.21 1014.52 1014.78 1014.96 1015.09 1015.19
1009.55 1008.19 1006.83 1005.54 1004.36 1003.29 1002.33 1001.48 1000.74 1000.16 999.81 999.74 1000.00 1000.59 1001.47 1002.55 1003.73 1004.90 1005.96 1006.85 1007.56 1008.14 1008.61 1009.05 1009.48 1009.94 1010.43 1010.91 1011.36 1011.77 1012.14 1012.47 1012.79 1013.12 1013.46 1013.82 1014.18 1014.51 1014.80 1015.03 1015.21 1015.33 1015.44
1009.72 1008.56 1007.41 1006.34 1005.38 1004.52 1003.73 1003.02 1002.39 1001.87 1001.52 1001.40 1001.55 1001.97 1002.64 1003.50 1004.45 1005.42 1006.31 1007.10 1007.76 1008.32 1008.81 1009.27 1009.73 1010.20 1010.68 1011.15 1011.59 1012.00 1012.36 1012.71 1013.05 1013.40 1013.76 1014.13 1014.48 1014.80 1015.07 1015.28 1015.43 1015.56 1015.68
1009.96 1009.00 1008.08 1007.24 1006.50 1005.84 1005.24 1004.68 1004.16 1003.71 1003.38 1003.21 1003.24 1003.50 1003.97 1004.60 1005.32 1006.08 1006.80 1007.47 1008.07 1008.60 1009.10 1009.59 1010.07 1010.55 1011.02 1011.47 1011.89 1012.27 1012.63 1012.97 1013.32 1013.68 1014.05 1014.41 1014.76 1015.05 1015.29 1015.48 1015.63 1015.75 1015.89
1010.28 1009.53 1008.83 1008.22 1007.69 1007.23 1006.80 1006.38 1005.97 1005.59 1005.28 1005.08 1005.03 1005.15 1005.43 1005.84 1006.36 1006.91 1007.47 1008.02 1008.54 1009.05 1009.54 1010.03 1010.51 1010.99 1011.44 1011.85 1012.23 1012.57 1012.90 1013.23 1013.58 1013.94 1014.30 1014.66 1014.99 1015.26 1015.48 1015.64 1015.77 1015.90 1016.04
1010.69 1010.13 1009.63 1009.22 1008.88 1008.59 1008.31 1008.02 1007.72 1007.41 1007.13 1006.93 1006.83 1006.84 1006.98 1007.23 1007.55 1007.93 1008.34 1008.77 1009.21 1009.66 1010.12 1010.59 1011.05 1011.49 1011.89 1012.25 1012.58 1012.88 1013.17 1013.47 1013.80 1014.15 1014.52 1014.87 1015.18 1015.44 1015.63 1015.78 1015.89 1016.01 1016.16
1011.15 1010.75 1010.42 1010.17 1009.99 1009.83 1009.68 1009.50 1009.29 1009.06 1008.84 1008.66 1008.55 1008.51 1008.56 1008.68 1008.86 1009.10 1009.37 1009.68 1010.02 1010.40 1010.80 1011.21 1011.62 1012.00 1012.34 1012.64 1012.90 1013.15 1013.40 1013.67 1013.98 1014.33 1014.68 1015.03 1015.34 1015.59 1015.77 1015.91 1016.01 1016.12 1016.26
1011.59 1011.33 1011.14 1011.02 1010.95 1010.89 1010.83 1010.73 1010.61 1010.47 1010.32 1010.19 1010.10 1010.06 1010.06 1010.11 1010.20 1010.32 1010.47 1010.67 1010.91 1011.19 1011.51 1011.84 1012.18 1012.48 1012.75 1012.97 1013.17 1013.36 1013.57 1013.82 1014.11 1014.45 1014.82 1015.17 1015.48 1015.74 1015.92 1016.06 1016.16 1016.26 1016.39
1011.99 1011.84 1011.75 1011.71 1011.71 1011.72 1011.71 1011.68 1011.63 1011.56 1011.49 1011.44 1011.40 1011.39 1011.39 1011.41 1011.44 1011.48 1011.54 1011.63 1011.77 1011.95 1012.17 1012.41 1012.66 1012.88 1013.07 1013.23 1013.37 1013.51 1013.69 1013.92 1014.21 1014.55 1014.92 1015.28 1015.61 1015.88 1016.08 1016.23 1016.33 1016.43 1016.55
1012.31 1012.24 1012.22 1012.23 1012.26 1012.29 1012.32 1012.33 1012.33 1012.33 1012.33 1012.36 1012.39 1012.43 1012.46 1012.47 1012.48 1012.47 1012.46 1012.47 1012.52 1012.61 1012.73 1012.88 1013.03 1013.18 1013.30 1013.40 1013.50 1013.61 1013.77 1013.99 1014.27 1014.61 1014.98 1015.36 1015.71 1016.00 1016.23 1016.40 1016.52 1016.63 1016.74
1012.55 1012.53 1012.54 1012.57 1012.61 1012.64 1012.67 1012.70 1012.73 1012.78 1012.85 1012.94 1013.04 1013.13 1013.20 1013.24 1013.24 1013.21 1013.16 1013.12 1013.10 1013.11 1013.15 1013.22 1013.30 1013.38 1013.45 1013.52 1013.59 1013.69 1013.83 1014.04 1014.31 1014.64 1015.01 1015.39 1015.75 1016.06 1016.32 1016.52 1016.67 1016.80 1016.92
1012.70 1012.71 1012.74 1012.76 1012.79 1012.81 1012.83 1012.86 1012.92 1013.00 1013.11 1013.24 1013.39 1013.52 1013.63 1013.69 1013.70 1013.67 1013.61 1013.54 1013.48 1013.44 1013.43 1013.44 1013.48 1013.52 1013.56 1013.60 1013.67 1013.76 1013.89 1014.09 1014.35 1014.66 1015.01 1015.37 1015.72 1016.04 1016.31 1016.54 1016.73 1016.89 1017.04
1012.78 1012.80 1012.82 1012.84 1012.84 1012.85 1012.87 1012.90 1012.96 1013.06 1013.19 1013.35 1013.51 1013.66 1013.79 1013.87 1013.89 1013.88 1013.83 1013.76 1013.69 1013.64 1013.60 1013.59 1013.60 1013.62 1013.65 1013.69 1013.76 1013.85 1013.98 1014.16 1014.39 1014.66 1014.97 1015.28 1015.60 1015.90 1016.18 1016.42 1016.64 1016.83 1017.01
1012.80 1012.81 1012.82 1012.82 1012.82 1012.83 1012.85 1012.90 1012.97 1013.07 1013.20 1013.35 1013.50 1013.64 1013.76 1013.85 1013.89 1013.89 1013.87 1013.82 1013.78 1013.74 1013.71 1013.69 1013.70 1013.72 1013.75 1013.80 1013.88 1013.97 1014.10 1014.25 1014.44 1014.66 1014.90 1015.15 1015.41 1015.66 1015.91 1016.15 1016.37 1016.59 1016.79
1012.75 1012.76 1012.76 1012.76 1012.77 1012.80 1012.86 1012.93 1013.03 1013.14 1013.26 1013.38 1013.49 1013.60 1013.68 1013.75 1013.79 1013.81 1013.82 1013.82 1013.81 1013.80 1013.80 1013.80 1013.81 1013.84 1013.88 1013.94 1014.02 1014.12 1014.24 1014.38 1014.52 1014.68 1014.84 1015.01 1015.18 1015.36 1015.55 1015.75 1015.97 1016.19 1016.40
1012.67 1012.65 1012.64 1012.66 1012.71 1012.80 1012.91 1013.05 1013.19 1013.32 1013.43 1013.52 1013.58 1013.62 1013.65 1013.68 1013.71 1013.74 1013.78 1013.82 1013.85 1013.88 1013.90 1013.92 1013.94 1013.97 1014.02 1014.09 1014.18 1014.29 1014.41 1014.53 1014.64 1014.74 1014.83 1014.91 1014.98 1015.07 1015.18 1015.32 1015.49 1015.69 1015.90
1012.56 1012.52 1012.51 1012.56 1012.66 1012.83 1013.04 1013.26 1013.48 1013.64 1013.76 1013.81 1013.81 1013.78 1013.75 1013.72 1013.72 1013.75 1013.81 1013.88 1013.95 1014.01 1014.05 1014.08 1014.09 1014.12 1014.16 1014.23 1014.33 1014.45 1014.58 1014.70 1014.80 1014.87 1014.90 1014.91 1014.90 1014.89 1014.91 1014.97 1015.07 1015.22 1015.40
1012.48 1012.41 1012.40 1012.47 1012.65 1012.91 1013.23 1013.57 1013.87 1014.10 1014.23 1014.27 1014.22 1014.12 1014.01 1013.93 1013.88 1013.90 1013.96 1014.05 1014.14 1014.21 1014.25 1014.27 1014.27 1014.27 1014.29 1014.35 1014.45 1014.59 1014.74 1014.89 1015.01 1015.07 1015.09 1015.05 1014.98 1014.90 1014.84 1014.80 1014.82 1014.89 1015.01
1012.45 1012.35 1012.33 1012.43 1012.67 1013.03 1013.47 1013.92 1014.33 1014.64 1014.81 1014.85 1014.77 1014.61 1014.44 1014.30 1014.22 1014.20 1014.25 1014.34 1014.43 1014.49 1014.52 1014.51 1014.47 1014.43 1014.42 1014.46 1014.56 1014.71 1014.90 1015.09 1015.26 1015.36 1015.39 1015.36 1015.26 1015.14 1015.01 1014.90 1014.84 1014.82 1014.86
1012.52 1012.38 1012.34 1012.45 1012.74 1013.18 1013.72 1014.29 1014.80 1015.20 1015.43 1015.49 1015.40 1015.22 1015.01 1014.82 1014.69 1014.65 1014.68 1014.75 1014.82 1014.87 1014.86 1014.80 1014.71 1014.61 1014.56 1014.56 1014.65 1014.83 1015.05 1015.30 1015.53 1015.71 1015.80 1015.81 1015.73 1015.60 1015.44 1015.29 1015.16 1015.07 1015.02
1012.72 1012.53 1012.45 1012.56 1012.86 1013.35 1013.96 1014.62 1015.23 1015.72 1016.02 1016.12 1016.06 1015.88 1015.64 1015.43 1015.28 1015.21 1015.21 1015.26 1015.31 1015.32 1015.26 1015.15 1015.00 1014.84 1014.73 1014.69 1014.77 1014.95 1015.21 1015.52 1015.83 1016.09 1016.27 1016.35 1016.34 1016.25 1016.10 1015.93 1015.76 1015.61 1015.50
1013.06 1012.82 1012.69 1012.75 1013.03 1013.53 1014.18 1014.89 1015.58 1016.14 1016.52 1016.68 1016.66 1016.51 1016.29 1016.07 1015.91 1015.82 1015.81 1015.83 1015.85 1015.83 1015.73 1015.57 1015.36 1015.14 1014.97 1014.89 1014.93 1015.10 1015.39 1015.74 1016.12 1016.47 1016.74 1016.92 1016.99 1016.97 1016.87 1016.73 1016.56 1016.39 1016.24
1013.52 1013.24 1013.04 1013.04 1013.27 1013.73 1014.37 1015.11 1015.84 1016.46 1016.90 1017.14 1017.18 1017.07 1016.88 1016.68 1016.53 1016.44 1016.42 1016.42 1016.42 1016.37 1016.25 1016.05 1015.79 1015.52 1015.30 1015.18 1015.18 1015.33 1015.61 1015.98 1016.40 1016.81 1017.17 1017.44 1017.61 1017.68 1017.66 1017.57 1017.44 1017.29 1017.13
1014.08 1013.75 1013.49 1013.41 1013.56 1013.96 1014.56 1015.28 1016.01 1016.67 1017.17 1017.47 1017.58 1017.54 1017.40 1017.24 1017.10 1017.02 1016.99 1017.00 1016.99 1016.93 1016.79 1016.57 1016.29 1016.00 1015.75 1015.58 1015.54 1015.65 1015.89 1016.25 1016.68 1017.12 1017.52 1017.87 1018.12 1018.28 1018.34 1018.34 1018.28 1018.17 1018.05
Thickness
5800 5805 5806 5807 5807 5807 5807 5808 5808 5809 5809 5808 5807 5807 5807 5807 5806 5806 5805 5804 5802 5800 5799 5797 5796 5794 5792 5789 5788 5787 5785 5783 5781 5779 5777 5775 5772 5770 5768 5767 5765 5763 5762
5804 5806 5807 5807 5807 5807 5807 5807 5808 5809 5809 5809 5808 5808 5807 5806 5806 5805 5804 5803 5802 5800 5798 5796 5795 5793 5791 5789 5787 5786 5784 5782 5780 5778 5776 5774 5772 5769 5768 5766 5764 5763 5761
5806 5806 5807 5807 5807 5807 5807 5807 5808 5809 5809 5809 5809 5807 5806 5806 5805 5804 5804 5804 5802 5800 5798 5796 5794 5792 5790 5789 5787 5785 5783 5781 5779 5777 5775 5773 5771 5769 5767 5766 5764 5762 5760
5807 5807 5807 5807 5807 5807 5807 5807 5807 5808 5808 5808 5808 5807 5806 5805 5804 5803 5803 5802 5801 5799 5798 5796 5793 5792 5790 5788 5786 5784 5782 5780 5779 5776 5774 5772 5770 5769 5767 5765 5763 5762 5760
5807 5807 5807 5807 5807 5806 5806 5806 5807 5807 5807 5807 5807 5806 5805 5804 5803 5802 5801 5800 5799 5797 5796 5794 5793 5791 5789 5788 5785 5783 5781 5780 5778 5775 5773 5771 5770 5768 5767 5765 5763 5761 5760
5807 5807 5807 5807 5806 5806 5806 5806 5806 5807 5806 5805 5805 5804 5804 5803 5802 5801 5800 5800 5797 5795 5793 5792 5790 5789 5788 5787 5785 5783 5780 5778 5776 5773 5772 5770 5769 5768 5766 5765 5763 5761 5759
5807 5807 5807 5807 5806 5806 5806 5806 5806 5805 5805 5804 5803 5803 5802 5801 5801 5799 5799 5798 5796 5793 5792 5791 5789 5788 5786 5785 5784 5781 5779 5777 5774 5772 5771 5769 5768 5768 5766 5764 5763 5761 5759
5808 5807 5806 5806 5806 5806 5806 5806 5805 5805 5804 5802 5802 5801 5800 5800 5800 5799 5798 5796 5794 5792 5790 5789 5787 5785 5784 5783 5781 5779 5777 5775 5773 5772 5770 5769 5768 5767 5766 5764 5762 5760 5758
5809 5807 5806 5806 5806 5806 5805 5806 5806 5804 5803 5802 5800 5799 5799 5799 5799 5799 5797 5795 5792 5790 5788 5787 5785 5783 5782 5780 5779 5777 5776 5774 5772 5771 5769 5767 5767 5766 5764 5762 5761 5759 5757
5807 5807 5806 5806 5805 5805 5805 5805 5805 5804 5802 5801 5799 5798 5797 5797 5797 5797 5795 5792 5790 5788 5786 5785 5783 5781 5780 5779 5778 5776 5775 5773 5771 5770 5768 5767 5766 5765 5763 5761 5760 5758 5756
5805 5806 5806 5805 5805 5805 5805 5805 5804 5802 5800 5799 5797 5796 5795 5794 5795 5793 5792 5791 5789 5787 5785 5784 5782 5780 5779 5777 5776 5775 5773 5771 5770 5768 5767 5766 5765 5764 5762 5760 5759 5757 5755
5802 5804 5806 5805 5805 5805 5804 5803 5802 5801 5799 5797 5795 5794 5793 5792 5792 5791 5790 5789 5788 5786 5785 5783 5781 5779 5778 5776 5775 5774 5772 5771 5769 5768 5766 5766 5765 5763 5762 5760 5757 5756 5754
5805 5805 5806 5806 5805 5804 5803 5802 5801 5799 5798 5796 5794 5793 5792 5791 5790 5789 5788 5787 5786 5785 5783 5782 5780 5778 5777 5775 5774 5772 5771 5770 5769 5767 5766 5765 5764 5763 5761 5759 5757 5755 5753
5806 5806 5807 5807 5805 5805 5804 5803 5801 5798 5797 5795 5794 5793 5792 5790 5788 5787 5786 5786 5785 5783 5782 5781 5779 5777 5776 5775 5774 5772 5771 5770 5768 5767 5766 5764 5763 5762 5760 5758 5756 5754 5752
5806 5807 5807 5808 5807 5805 5804 5803 5801 5799 5797 5796 5794 5793 5792 5790 5788 5787 5786 5785 5784 5783 5781 5780 5779 5777 5776 5775 5774 5772 5771 5769 5768 5766 5765 5764 5763 5761 5760 5758 5756 5753 5751
5807 5807 5808 5808 5807 5806 5804 5802 5801 5799 5797 5796 5795 5793 5792 5790 5789 5787 5786 5784 5783 5782 5781 5780 5779 5778 5776 5775 5773 5772 5771 5769 5768 5766 5765 5763 5762 5761 5759 5757 5755 5753 5751
5809 5809 5808 5808 5807 5806 5804 5803 5801 5799 5797 5796 5794 5793 5792 5791 5789 5787 5785 5784 5783 5782 5781 5780 5779 5777 5776 5774 5772 5771 5770 5769 5767 5765 5764 5763 5761 5760 5758 5757 5755 5753 5751
5811 5809 5809 5810 5806 5805 5804 5802 5801 5799 5797 5796 5795 5793 5792 5791 5789 5788 5786 5784 5784 5783 5781 5779 5777 5774 5773 5772 5770 5770 5769 5768 5766 5765 5763 5762 5761 5759 5758 5757 5755 5754 5752
5812 5810 5809 5808 5806 5804 5803 5802 5800 5799 5797 5796 5794 5793 5792 5791 5790 5788 5786 5785 5784 5782 5781 5779 5776 5774 5771 5770 5769 5768 5768 5767 5766 5765 5763 5762 5760 5759 5757 5756 5755 5754 5752
5813 5812 5809 5808 5806 5804 5802 5800 5798 5796 5795 5794 5793 5793 5792 5791 5789 5788 5786 5785 5784 5781 5779 5778 5775 5774 5772 5770 5770 5767 5766 5766 5765 5764 5763 5762 5760 5758 5757 5756 5754 5753 5752
5813 5810 5808 5806 5804 5803 5799 5796 5793 5790 5791 5791 5791 5791 5791 5790 5789 5787 5786 5784 5782 5780 5778 5777 5774 5772 5770 5769 5765 5761 5762 5764 5763 5763 5762 5761 5759 5758 5756 5755 5753 5752 5750
5811 5810 5807 5805 5804 5802 5800 5797 5795 5792 5791 5790 5790 5790 5789 5789 5788 5787 5784 5782 5781 5779 5777 5775 5773 5770 5768 5768 5762 5755 5750 5753 5758 5762 5760 5760 5759 5757 5755 5755 5753 5751 5749
5809 5808 5808 5805 5804 5802 5800 5797 5794 5790 5788 5787 5786 5786 5788 5788 5787 5785 5783 5781 5780 5778 5775 5774 5773 5770 5765 5766 5765 5758 5748 5743 5748 5755 5757 5758 5757 5755 5754 5753 5751 5749 5748
5809 5810 5807 5805 5803 5801 5799 5795 5790 5785 5781 5782 5784 5784 5785 5785 5784 5783 5782 5780 5779 5777 5775 5774 5774 5771 5767 5763 5763 5762 5759 5755 5747 5744 5750 5753 5754 5753 5752 5751 5749 5748 5746
5809 5807 5805 5803 5801 5799 5797 5794 5789 5785 5783 5783 5783 5781 5781 5782 5782 5781 5780 5779 5777 5776 5774 5773 5772 5770 5767 5764 5761 5760 5757 5755 5753 5745 5740 5744 5747 5749 5750 5749 5748 5746 5744
5806 5805 5803 5799 5797 5797 5795 5792 5789 5785 5782 5780 5778 5777 5777 5778 5778 5779 5778 5777 5775 5774 5772 5772 5770 5768 5766 5764 5761 5759 5756 5752 5749 5746 5740 5739 5739 5743 5746 5747 5745 5743 5742